Starlink 31609

operational
NORAD ID: 59269 Int'l Des: 2024-050 Owner: SPXS Country: US Constellation: starlink
LEOCIRCULAR

Starlink 31609について

説明を読み込み中...

リアルタイム位置

3D地球を読み込み中...

次回通過

高度履歴

Altitude vs Time

uPlot chart will show altitude changes over time

軌道要素

1 59269U 24050R 25305.58934283 .00011908 00000-0 41362-3 0 9997
2 59269 53.1590 56.1617 0001181 79.9284 280.1850 15.30192320 90933
Epoch: Nov 1, 2025 • Age: 18 hours

現在のステータス

高度 486.3 km
速度 7.62 km/s
衛星直下点 -33.48°S, 94.91°E
打ち上げ日 Mar 19, 2024
運用期間 1.6 years
タイプ internet

技術仕様

分類 Payload
質量 730.00 kg
乾燥質量 700.00 kg
総質量 730.00 kg
長さ 0.30 m
直径 4.10 m
スパン 29.00 m
形状 Box + pan
製造者 SPXS
バスタイプ Starlink V2M
フェーズステータス In Orbit
所有者/国 SPXS/US

大規模コンステレーション

Loading constellations...